Location: Newark
(41.6500°N, 71.4833°W)
Time: 15:16:42
(UTC+00:00)

deb Explorer IX - Pass Details

Date: 01 February 2020
Orbit: 549 x 1099 km, 38.8° (Epoch: 17 February)

Event Time Altitude Azimuth Distance (km) Brightness Sun altitude
Rises 05:18:17 0° 278° (W) 3,833 - -65.3°
Reaches altitude 10° 05:21:20 10° 268° (W) 2,917 - -65.1°
Maximum altitude 05:27:22 29° 211° (SSW) 1,872 - -64.9°
Drops below altitude 10° 05:33:24 10° 155° (SSE) 2,908 - -64.5°
Sets 05:36:27 0° 144° (SE) 3,819 - -64.3°
